STARLINK-1347, 45586

Orbit data source: Space-Track

STARLINK-1347, 45586 is a payload satellite owned by SpaceX/Seattle (US) in LEO that was launched on Wed, 22 Apr 2020 UTC via an FALCON 9 launch vehicle from the Air Force Eastern Test Range (AFETR). Payload-class satellites include a variety of spacecraft equipped with specific instruments for various scientific and technological missions. These include communications satellites like Starlink; space stations such as the ISS; scientific satellites like the Hubble; Earth observation satellites from companies like Planet Labs, Umbra, and HawkEye 360; GPS; miniature CubeSats for education and research; and military/defense satellites.

Loading next visibility...
Identifier
45586, 2020-025BH
Orbit
LEO
Country
Flag of USUS
Related business
Manufacturer
SpaceX/Seattle
Mission
Partially operational Commercial Communications
Bus & Motor
STARLINK, Unknown motor
Mass
260 kg wet, ~248 kg dry
Launch date (UTC)
2020-04-22 (5 years ago)
Launch vehicle
FALCON 9
Launch site
Air Force Eastern Test Range (AFETR)
Object type
Payload
Rocket body
Debris
Shape & HBR
Box + 1 Pan, 10.1 m
Radar Cross Section
13.562 m², Large (>1 m²)

Expand to show TLE details & history
Last TLE update: 1 day ago

TLE from 1 day ago
0 STARLINK-1347
1 45586U 20025BH  25290.54208405  .00073232  00000-0  25546-2 0  9994
2 45586  53.0574 347.0822 0005083 285.4501  74.5936 15.28967592304095
Epoch: 2025-10-17T13:00Z
TLE epoch observation values (Epoch: 2025-10-17T13:00:36.061Z)
Latitude
-0.00007°
Longitude
125.64593°
Altitude
478.861 km
Speed
7.628 km/s
True Right ascension
23h 08m 19s
True Declination
0° 00' 00"
Sunlit
Object was in full shadow at epoch
Visualization orbit readout
Latitude
Unknown
Longitude
Unknown
Altitude
Unknown
Speed
Unknown
Apparent Right ascension
Unknown
Apparent Declination
Unknown
Sunlit
N/A
Visualization observer readout
Local Sidereal Time
15:05:06
Azimuth
Unknown
Elevation
Unknown
Doppler factor
Unknown
Orbital elements
Apogee altitude
482.656 km
Perigee altitude
475.685 km
Semi-major axis
6,857.307 km
Eccentricity
0.00051
Inclination
53.0574°
RAAN
347.0822°
Arg. of periapsis
285.4501°
True anomaly
74.64976°
Mean anomaly
74.5936°
Eccentric anomaly
74.62168°
Mean motion
3.82219 °/min
Orbital period
94.19 mins
BSTAR
0.0025546
Loading maneuver chart data...
Computing Atmospheric mass density...

Documentation

Showing up to 5 results
|